User: anonymous   Login
Location: Unspecified
(0.0000°N, 0.0000°E)
Time: 21:50:30
(UTC+00:00)
Language:

Uribyol 2 - Orbit

View from above orbital plane
View from above orbital plane
View from above satellite
View from above satellite

Ground track
Ground track

The orbit data is extracted from the following two-line orbital elements,

1 22828U 93061F   18146.54612880  .00000002  00000-0  18387-4 0  9998
2 22828  98.8463 120.8920 0010128  13.7641 346.3816 14.30674293255033
Epoch (UTC): 26 May 2018 13:06:25
Eccentricity: 0.0010128
inclination: 98.8463°
perigee height: 782 km
apogee height: 797 km
right ascension of ascending node: 120.8920°
argument of perigee: 13.7641°
revolutions per day: 14.30674293
mean anomaly at epoch: 346.3816°
orbit number at epoch: 25503

The dashed part of the orbit path shows where the satellite is in the earth's shadow,  

DLR